Temp
11 11 11 11 11 11 11 11 11 11 11 12 12 13 13 13 13 13 13 13 13 13 13 13 13 12 12 11 10 9 9 10 9 10 10 11 11 11 11 10 10 10 10 9 8
11 11 11 11 11 11 11 11 11 11 11 12 12 12 13 13 13 13 13 13 13 13 13 13 13 12 12 11 10 10 11 11 11 10 11 10 10 12 11 10 10 10 9 9 8
11 11 11 11 11 11 11 11 11 12 12 12 12 12 12 12 12 12 12 13 13 13 13 13 14 11 12 12 10 11 12 12 11 10 10 9 10 12 10 11 12 11 8 8 8
11 11 11 11 11 11 11 11 11 12 12 12 12 12 12 11 11 12 12 13 13 13 13 13 14 13 12 12 12 11 12 11 11 9 9 8 9 10 10 10 9 10 9 9 8
11 11 11 11 11 11 11 11 11 12 12 12 12 11 11 10 12 11 12 13 13 13 13 13 13 12 13 13 12 10 10 10 10 10 10 10 9 9 11 10 9 9 9 9 9
11 11 11 11 11 11 11 11 11 11 11 11 11 11 10 10 11 11 12 12 12 12 13 13 13 12 13 13 12 11 12 10 9 10 10 10 10 10 11 11 10 10 9 9 8
11 11 11 11 11 11 11 11 11 11 11 11 10 10 10 10 11 12 12 12 12 12 12 12 11 12 12 13 13 12 13 11 10 10 10 10 10 11 11 10 10 10 9 9 8
11 11 11 11 11 11 11 10 10 10 10 10 10 9 10 10 11 11 11 11 12 12 12 11 11 12 12 12 13 13 12 11 10 10 9 10 10 10 10 10 10 10 9 10 8
12 12 11 11 11 11 10 10 10 10 10 10 10 9 9 9 10 10 9 10 11 12 12 11 12 12 13 12 13 13 13 12 11 11 10 10 11 11 10 10 10 10 9 9 9
11 11 11 11 11 10 10 9 9 9 10 10 10 10 10 9 9 9 9 9 10 11 11 12 12 12 13 13 13 14 14 12 11 12 11 11 11 11 10 10 10 10 10 9 9
11 11 11 11 11 10 9 9 9 9 10 10 10 10 10 10 10 10 9 10 10 10 11 12 12 12 13 14 14 14 14 13 12 12 12 12 12 12 12 11 10 9 10 10 10
11 11 11 11 11 10 9 9 9 9 10 10 11 11 11 10 10 10 10 10 10 10 11 11 12 13 13 14 15 14 14 12 11 11 11 12 12 12 12 12 11 9 9 10 10
11 11 11 11 11 10 10 10 9 9 10 11 11 11 11 11 11 11 11 11 11 12 12 12 13 14 14 14 15 15 14 14 13 12 13 12 12 12 12 12 11 10 9 9 9
11 11 11 11 11 10 10 9 9 10 10 11 12 12 12 11 11 11 11 11 12 12 13 13 14 14 14 14 15 15 13 14 13 13 13 13 12 13 13 12 12 10 10 9 9
11 11 11 11 11 10 11 10 10 10 9 13 12 12 12 12 12 11 11 11 12 13 13 13 14 14 15 15 15 15 14 14 14 14 14 14 14 14 12 12 13 12 11 10 10
11 11 11 11 11 10 10 10 10 10 11 14 13 13 12 12 12 12 11 11 12 13 13 13 14 14 14 14 14 15 14 14 14 14 13 14 13 12 12 14 13 12 11 10 10
11 11 11 11 10 10 10 10 10 10 14 14 14 13 13 13 13 13 12 12 12 13 13 14 14 14 13 14 14 14 15 14 11 11 11 14 14 13 13 13 13 13 12 11 10
11 11 11 11 11 11 10 10 9 12 13 15 14 14 14 14 14 13 13 13 13 14 14 14 14 14 14 14 14 14 14 14 12 10 11 14 12 12 11 11 11 12 12 10 9
10 11 11 11 11 10 10 9 11 13 14 15 14 14 14 14 14 14 14 14 14 14 14 14 14 14 14 14 14 14 14 15 15 14 12 11 12 13 13 11 12 11 11 12 11
10 10 11 11 10 9 9 10 11 12 13 14 14 15 15 15 14 14 14 15 14 14 14 14 14 14 14 14 14 14 14 14 13 10 10 9 10 12 12 12 11 11 11 10 11
9 10 9 10 10 8 9 10 12 13 13 13 13 14 14 14 14 14 15 14 14 13 13 14 14 14 14 13 13 13 14 13 12 11 8 8 10 10 10 9 11 10 10 10 10
8 9 8 8 8 9 9 10 11 12 13 13 13 13 14 14 14 14 14 14 14 13 13 13 13 13 12 12 12 13 12 12 12 10 10 9 9 10 10 9 9 8 9 10 9
8 9 8 8 8 8 9 10 10 11 12 13 13 13 13 13 13 14 13 13 13 13 13 13 13 12 12 12 12 13 12 11 11 11 10 9 10 10 10 10 9 6 7 9 9
7 8 8 8 8 8 9 9 11 12 12 13 13 13 13 13 13 13 13 13 12 12 12 12 12 12 12 12 12 12 12 11 11 11 10 9 9 10 10 9 9 7 8 9 9
6 7 5 7 8 8 8 9 10 10 12 13 13 13 13 12 13 13 13 13 12 12 12 11 11 12 13 13 12 12 12 11 11 11 11 10 10 10 11 10 10 10 10 10 11
5 6 7 8 7 8 8 9 10 11 11 11 13 12 12 12 12 12 13 13 13 12 12 12 12 12 12 13 12 11 11 11 10 10 10 10 8 10 10 10 10 10 10 10 10
4 5 5 7 7 7 9 9 9 10 11 11 11 12 12 12 12 12 12 12 12 12 12 12 12 11 11 12 12 11 11 11 11 10 10 9 10 9 9 10 10 10 10 10 9
Height
3148 3148 3146 3146 3145 3144 3144 3143 3142 3142 3141 3141 3141 3141 3141 3142 3144 3146 3149 3153 3154 3155 3158 3159 3161 3164 3166 3170 3170 3165 3171 3170 3166 3165 3168 3167 3170 3174 3175 3173 3176 3177 3178 3181 3182
3150 3148 3147 3146 3145 3145 3144 3143 3142 3141 3141 3140 3140 3140 3140 3140 3142 3144 3149 3150 3152 3155 3157 3159 3161 3161 3165 3168 3164 3170 3169 3165 3165 3167 3167 3162 3172 3175 3180 3176 3177 3178 3182 3184 3185
3150 3149 3148 3147 3146 3145 3144 3143 3142 3141 3140 3140 3139 3139 3139 3139 3141 3144 3146 3148 3151 3153 3156 3159 3160 3161 3163 3168 3164 3161 3165 3164 3165 3165 3165 3169 3172 3175 3178 3178 3177 3177 3183 3186 3188
3152 3150 3149 3148 3147 3146 3145 3144 3143 3141 3140 3139 3139 3139 3139 3139 3142 3141 3144 3146 3149 3152 3155 3159 3160 3160 3163 3164 3162 3164 3163 3164 3165 3167 3166 3158 3170 3175 3179 3179 3179 3179 3182 3185 3187
3153 3151 3150 3149 3148 3147 3146 3145 3143 3142 3141 3140 3139 3139 3140 3141 3140 3141 3141 3144 3147 3151 3155 3158 3158 3161 3162 3164 3162 3157 3164 3169 3168 3167 3168 3167 3170 3177 3178 3178 3180 3182 3184 3184 3187
3154 3152 3151 3150 3149 3147 3146 3145 3144 3143 3141 3141 3140 3141 3141 3141 3140 3140 3141 3143 3146 3150 3154 3157 3158 3161 3162 3162 3160 3157 3165 3166 3170 3171 3172 3172 3174 3173 3176 3177 3181 3183 3184 3185 3186
3154 3153 3151 3150 3149 3148 3147 3146 3145 3144 3143 3142 3142 3142 3142 3143 3140 3140 3141 3143 3146 3149 3152 3156 3158 3160 3160 3163 3162 3166 3165 3165 3172 3171 3173 3176 3175 3176 3177 3177 3181 3182 3183 3186 3186
3155 3153 3151 3150 3150 3149 3147 3146 3146 3145 3145 3144 3144 3143 3141 3141 3140 3140 3141 3143 3146 3147 3150 3153 3155 3156 3159 3162 3162 3164 3164 3167 3171 3173 3175 3178 3177 3176 3177 3178 3178 3181 3184 3185 3187
3155 3153 3152 3151 3150 3149 3149 3148 3148 3148 3147 3146 3146 3144 3142 3142 3141 3140 3142 3144 3147 3148 3150 3151 3153 3157 3159 3160 3163 3162 3164 3167 3171 3172 3171 3175 3176 3175 3173 3176 3177 3178 3181 3184 3185
3156 3154 3152 3151 3151 3150 3150 3150 3150 3150 3149 3148 3146 3147 3146 3145 3142 3142 3143 3145 3146 3149 3151 3153 3155 3157 3158 3159 3161 3163 3164 3166 3168 3169 3170 3171 3172 3175 3174 3174 3174 3175 3178 3181 3183
3156 3154 3153 3152 3151 3151 3151 3151 3152 3152 3149 3149 3148 3148 3147 3147 3144 3143 3144 3145 3148 3150 3151 3153 3155 3155 3156 3156 3161 3162 3163 3165 3166 3168 3166 3168 3169 3170 3171 3172 3172 3171 3175 3178 3183
3156 3154 3153 3152 3152 3151 3152 3150 3149 3152 3149 3148 3147 3149 3148 3145 3146 3145 3145 3147 3149 3150 3151 3155 3154 3153 3154 3156 3159 3159 3161 3163 3167 3167 3168 3169 3167 3166 3168 3168 3169 3170 3171 3176 3180
3155 3153 3152 3152 3151 3152 3152 3151 3150 3152 3149 3146 3148 3147 3149 3148 3147 3147 3148 3148 3150 3151 3152 3153 3151 3154 3153 3153 3156 3157 3159 3159 3163 3164 3167 3168 3166 3162 3165 3165 3166 3169 3170 3174 3177
3153 3152 3151 3151 3153 3152 3152 3152 3152 3152 3149 3148 3148 3149 3150 3147 3150 3148 3148 3149 3151 3151 3151 3152 3150 3153 3153 3152 3154 3156 3159 3158 3161 3164 3163 3163 3160 3158 3159 3162 3161 3163 3165 3169 3173
3152 3150 3150 3149 3150 3151 3151 3149 3151 3152 3150 3145 3147 3146 3147 3149 3149 3148 3148 3148 3148 3149 3152 3151 3150 3150 3149 3152 3152 3155 3155 3157 3158 3159 3159 3158 3158 3154 3159 3158 3156 3156 3158 3165 3170
3150 3149 3148 3148 3149 3151 3149 3151 3151 3153 3147 3144 3144 3145 3147 3146 3148 3148 3148 3149 3148 3148 3149 3148 3147 3148 3148 3149 3150 3152 3153 3154 3154 3156 3156 3156 3157 3154 3154 3153 3152 3152 3154 3158 3165
3146 3145 3145 3145 3147 3147 3148 3149 3153 3148 3142 3142 3142 3143 3143 3145 3146 3146 3147 3147 3147 3148 3147 3145 3145 3146 3147 3149 3150 3151 3153 3153 3156 3156 3155 3153 3152 3151 3150 3152 3152 3149 3150 3154 3158
3142 3141 3142 3142 3143 3146 3146 3150 3149 3141 3141 3141 3142 3144 3142 3144 3144 3145 3146 3145 3145 3146 3145 3143 3143 3144 3145 3147 3149 3150 3151 3152 3155 3155 3155 3152 3151 3152 3150 3149 3149 3152 3150 3152 3156
3137 3136 3138 3138 3139 3142 3146 3145 3139 3139 3140 3140 3140 3142 3142 3143 3144 3144 3144 3143 3142 3145 3145 3141 3140 3143 3144 3146 3147 3147 3148 3150 3148 3147 3149 3151 3148 3151 3149 3149 3148 3149 3153 3154 3155
3132 3132 3134 3134 3135 3138 3140 3137 3137 3136 3138 3139 3140 3140 3141 3141 3143 3143 3142 3141 3142 3143 3144 3144 3145 3143 3143 3145 3146 3146 3147 3148 3146 3149 3149 3149 3148 3147 3147 3146 3146 3145 3148 3149 3157
3128 3128 3130 3130 3132 3134 3132 3132 3134 3134 3139 3140 3141 3140 3139 3139 3140 3140 3140 3140 3141 3142 3142 3144 3145 3144 3144 3144 3144 3145 3147 3146 3148 3150 3151 3154 3152 3148 3146 3144 3141 3142 3144 3145 3153
3125 3127 3129 3128 3131 3131 3129 3131 3133 3130 3136 3137 3138 3137 3137 3137 3137 3138 3138 3137 3139 3141 3142 3143 3143 3143 3143 3143 3144 3145 3146 3145 3147 3150 3150 3152 3148 3147 3146 3144 3142 3143 3139 3141 3146
3122 3124 3125 3128 3127 3128 3129 3128 3128 3128 3132 3133 3136 3136 3135 3135 3136 3136 3136 3139 3139 3141 3142 3142 3143 3144 3144 3146 3146 3145 3145 3144 3145 3145 3146 3147 3146 3146 3144 3145 3147 3120 3140 3142 3145
3120 3121 3124 3123 3125 3126 3126 3125 3125 3126 3130 3132 3132 3134 3134 3133 3134 3135 3136 3136 3138 3139 3140 3140 3140 3142 3144 3144 3143 3141 3142 3142 3144 3144 3142 3144 3145 3145 3145 3142 3138 3143 3133 3142 3148
3116 3117 3114 3115 3118 3119 3121 3120 3119 3120 3125 3127 3128 3129 3131 3131 3132 3133 3134 3135 3135 3135 3137 3138 3138 3139 3139 3140 3139 3139 3139 3140 3140 3141 3139 3136 3137 3143 3144 3142 3145 3146 3147 3147 3146
3112 3109 3111 3112 3113 3113 3114 3114 3116 3117 3122 3122 3124 3126 3127 3128 3129 3130 3131 3131 3132 3133 3135 3136 3136 3136 3137 3137 3137 3139 3138 3139 3141 3142 3141 3140 3142 3142 3144 3144 3143 3143 3146 3147 3145
3109 3106 3107 3107 3108 3109 3110 3109 3111 3117 3116 3117 3119 3122 3122 3124 3126 3127 3126 3128 3131 3133 3133 3134 3134 3135 3135 3136 3136 3137 3136 3136 3134 3140 3139 3138 3143 3145 3145 3145 3143 3144 3144 3143 3143
Wind_Speed
9 8 8 8 7 7 7 6 6 5 4 4 5 6 9 11 13 15 16 14 11 10 8 7 6 8 13 13 11 5 3 8 8 9 6 8 22 14 5 24 6 2 11 22 18
10 9 9 8 7 7 7 7 7 7 5 3 3 5 6 9 11 13 12 13 12 12 10 9 10 4 9 4 15 3 4 7 9 11 14 4 14 19 10 15 12 13 20 23 19
10 10 9 8 8 7 6 7 7 7 6 4 1 2 3 6 9 10 12 14 15 14 13 10 8 6 10 11 13 13 11 3 9 9 15 13 19 20 14 10 4 8 23 22 18
10 10 9 8 7 7 7 7 8 8 6 4 1 2 5 6 3 1 11 14 15 16 14 11 9 5 3 7 13 14 3 7 2 5 6 15 16 15 10 12 14 10 15 19 17
11 10 9 8 7 6 6 7 8 8 6 4 3 6 9 4 8 7 4 14 14 15 15 11 8 7 7 13 14 9 11 7 9 6 7 14 21 11 15 22 16 17 9 13 13
11 10 9 7 6 6 6 6 7 8 7 6 7 8 5 4 8 5 3 12 14 15 16 15 11 3 15 8 8 3 6 6 9 2 3 12 17 17 14 16 22 11 12 14 17
11 11 9 7 6 6 6 6 7 8 8 7 6 5 1 9 9 1 4 12 13 17 19 7 4 10 9 10 14 1 6 8 14 0 7 12 14 15 17 26 19 9 13 12 12
12 12 10 8 7 6 7 7 7 8 8 8 6 4 2 15 6 2 6 12 16 19 19 8 11 14 8 6 5 3 6 12 6 6 1 11 16 15 15 24 22 19 18 12 11
13 12 9 7 6 8 12 13 12 13 13 12 9 7 7 11 3 4 8 6 6 16 20 18 18 15 11 6 9 9 8 8 5 7 6 14 6 13 19 26 25 24 21 17 17
13 12 9 7 5 7 12 12 13 12 8 6 13 8 8 7 8 2 9 10 5 10 13 13 7 17 8 7 12 8 7 6 5 4 7 7 7 7 14 24 27 25 23 19 17
13 12 9 6 2 3 5 9 8 9 7 5 1 9 5 6 6 2 2 7 3 3 5 1 6 10 13 8 11 3 6 13 4 3 13 4 5 4 3 21 25 23 24 17 13
12 11 8 5 2 2 3 6 6 5 6 2 2 9 11 1 4 9 9 6 3 3 3 8 11 10 13 14 17 14 6 12 8 4 9 12 10 9 9 7 18 30 25 21 22
12 10 7 4 1 4 3 4 6 11 13 6 5 6 6 4 5 7 8 7 2 3 9 9 14 2 12 17 13 7 15 9 3 9 12 11 14 18 13 11 19 28 29 24 23
13 10 7 3 2 6 6 5 10 7 9 7 6 11 1 5 5 6 7 2 8 9 9 13 12 14 11 14 11 10 13 3 2 6 11 16 6 18 18 12 18 29 34 32 29
14 11 8 5 6 12 6 8 3 6 5 7 10 10 3 6 4 2 2 5 7 8 6 11 5 10 9 15 11 6 4 7 8 11 11 13 13 16 16 20 13 22 30 37 29
15 12 10 6 7 12 7 6 3 3 8 10 7 3 8 4 6 3 3 5 3 2 7 11 4 9 9 13 10 14 10 8 9 10 6 9 9 10 18 14 16 19 23 38 33
16 14 11 7 10 16 15 7 4 7 5 10 10 7 5 11 9 3 2 3 6 6 12 12 14 9 12 10 12 15 13 6 3 1 4 10 11 4 7 10 11 7 14 23 39
18 16 13 9 13 14 17 10 8 8 13 4 3 4 9 15 9 4 10 9 11 8 13 21 14 16 11 14 12 14 14 15 1 4 11 15 6 3 9 10 13 8 6 16 41
20 18 12 12 13 16 20 17 9 3 13 1 3 3 12 10 6 6 6 14 12 6 7 12 10 8 6 5 12 11 15 15 20 13 8 4 2 8 11 13 14 19 13 18 34
18 17 9 13 17 20 24 29 17 9 10 4 9 6 3 10 6 11 10 6 1 4 11 6 7 4 6 5 6 12 14 13 8 4 3 2 2 16 11 12 10 22 23 23 30
15 11 5 10 19 23 29 32 17 6 13 10 12 15 10 3 11 11 5 7 8 3 3 3 6 3 6 3 4 5 11 6 2 4 1 3 8 11 7 10 19 21 21 18 34
11 6 6 12 15 22 28 25 14 13 8 7 12 12 9 7 8 8 6 9 12 10 2 5 7 8 7 1 3 2 10 7 2 1 2 3 5 10 13 10 1 8 17 24 28
11 10 17 19 18 17 19 22 21 18 14 9 10 10 11 7 4 7 2 5 4 6 5 11 6 6 4 8 11 8 2 2 3 4 6 5 4 10 7 15 22 21 12 8 15
9 8 15 20 21 19 22 24 23 16 19 15 11 12 11 11 12 7 6 5 5 6 7 11 16 11 11 2 13 17 15 8 8 4 1 4 10 6 6 13 17 15 16 5 2
9 14 12 12 24 23 21 30 31 28 16 19 17 11 11 9 11 14 10 10 7 8 5 7 9 6 10 12 7 4 8 11 13 13 10 12 4 5 3 5 19 8 7 3 3
11 20 25 24 21 19 14 22 23 20 15 18 22 19 17 15 14 11 7 7 10 8 7 3 6 9 13 12 10 8 7 7 10 10 11 6 8 7 5 5 8 9 9 3 6
16 21 24 24 27 22 17 12 8 21 16 25 16 19 20 19 16 15 11 11 4 3 9 6 4 10 8 8 6 10 10 5 1 20 16 5 11 13 8 8 5 8 8 3 0
Wind_Direction
19 17 13 9 6 360 356 349 335 329 319 293 264 249 238 231 225 219 213 210 198 192 190 180 144 130 104 113 243 72 67 132 167 193 108 142 129 118 105 144 150 142 136 146 156
21 20 17 16 13 7 360 353 346 338 335 316 269 248 237 233 230 226 219 208 203 197 191 174 158 70 13 356 248 281 23 224 143 156 178 224 127 122 122 151 149 136 151 146 157
24 20 16 15 12 12 8 1 358 355 356 346 303 234 214 219 229 227 214 207 200 196 195 179 153 168 258 275 288 322 357 85 193 220 224 219 179 136 107 165 217 170 150 151 157
22 18 13 13 13 14 13 9 6 6 9 19 41 145 153 172 230 314 219 206 198 194 193 191 186 153 34 290 300 255 336 37 67 163 246 136 190 115 154 135 140 166 156 156 163
17 14 10 10 12 15 18 18 14 16 23 47 88 129 144 162 243 322 233 199 193 190 187 194 176 69 339 306 279 150 111 88 114 158 92 94 114 111 131 180 154 148 167 172 166
11 10 8 9 16 25 28 28 30 32 46 79 113 137 154 260 299 292 227 185 185 181 181 194 126 35 300 305 293 106 295 136 132 197 164 187 166 145 144 135 153 204 171 178 190
8 5 9 15 20 31 35 37 41 46 58 75 113 141 280 343 318 306 184 177 177 174 182 163 199 266 266 280 279 85 338 133 139 258 136 166 160 157 160 150 161 168 169 185 179
7 5 7 17 30 40 48 52 54 55 60 65 70 34 340 1 334 202 165 176 183 175 167 181 224 226 195 349 237 246 124 149 162 132 75 187 195 175 177 164 161 167 185 206 180
6 3 8 23 39 61 67 66 64 70 74 71 46 17 7 357 347 116 61 28 219 193 182 190 208 190 163 234 243 271 197 205 199 290 257 195 241 188 192 171 172 172 192 191 213
4 2 7 22 48 95 84 65 50 44 21 25 29 23 12 14 321 215 177 170 244 201 201 217 228 210 211 236 250 277 204 340 313 239 195 212 212 208 202 192 183 189 199 208 194
359 360 4 14 40 126 87 57 34 16 18 26 310 3 308 326 37 133 227 135 136 258 201 147 205 218 207 215 243 273 257 222 212 96 184 226 258 204 234 212 199 201 200 194 189
352 353 357 2 22 148 102 77 80 326 315 343 51 236 331 357 17 347 125 137 15 211 166 219 253 214 241 260 255 244 236 165 156 193 209 243 271 292 249 268 221 204 209 195 199
344 344 345 343 97 149 106 75 58 356 307 214 320 281 321 113 200 305 102 90 269 256 224 236 241 284 249 263 269 234 237 201 218 169 216 213 255 262 246 226 211 210 215 206 194
330 331 326 312 177 142 125 18 343 324 310 228 209 195 35 111 186 272 130 289 256 263 275 245 255 243 248 257 248 227 178 177 153 225 251 235 244 247 246 235 222 212 216 214 212
317 317 306 272 207 182 208 191 98 41 290 187 164 217 197 233 273 269 20 196 215 275 241 240 277 281 223 237 253 252 194 227 240 249 267 267 239 266 229 228 241 226 222 211 213
310 305 295 272 206 202 194 211 59 306 246 180 218 232 180 170 177 245 4 187 222 249 252 229 280 238 240 239 240 228 272 285 245 266 268 297 354 175 226 249 285 230 227 222 216
300 296 286 265 196 202 197 168 315 232 216 183 198 195 210 188 207 341 208 258 221 213 219 240 232 251 223 220 227 247 266 274 243 293 228 322 342 313 220 272 259 218 231 217 217
292 286 277 250 226 211 189 194 246 234 258 243 184 227 258 188 226 231 232 251 238 258 261 256 224 203 202 225 233 227 241 243 177 151 283 302 344 256 189 245 241 266 255 217 203
289 282 275 246 211 199 202 199 221 204 342 331 247 234 239 201 208 219 258 264 262 217 344 340 91 172 197 222 245 246 269 246 265 244 221 206 254 246 254 283 242 226 233 215 204
286 282 273 247 200 198 211 214 232 250 339 271 285 285 273 228 244 211 231 251 168 252 277 268 316 194 199 201 268 259 275 312 351 17 337 332 279 253 285 258 235 205 205 209 209
291 283 294 248 194 203 217 223 227 239 280 267 263 278 289 192 243 228 298 206 192 60 53 331 338 36 186 75 321 13 290 283 35 53 117 23 304 318 274 324 238 234 225 184 209
287 213 102 184 212 221 230 229 228 261 252 255 251 269 262 311 226 234 272 177 164 195 227 315 341 318 127 47 248 325 4 329 5 269 180 159 253 306 271 264 118 342 238 200 214
284 216 177 226 231 242 250 254 255 262 267 244 242 250 252 273 314 272 226 272 268 223 240 252 231 8 19 280 290 289 305 322 255 257 215 189 279 315 285 276 268 337 166 154 160
287 225 193 214 240 241 250 248 253 244 261 237 232 246 263 249 245 271 267 205 173 226 254 268 262 266 300 119 295 279 236 248 243 223 54 323 295 269 257 276 322 306 359 74 209
270 220 246 213 219 236 250 244 254 267 264 238 240 241 235 240 248 248 246 224 253 244 278 303 264 260 282 288 280 239 264 251 239 232 234 239 278 230 275 217 218 244 233 284 293
246 242 229 222 235 244 236 257 258 249 259 256 234 231 236 238 247 262 253 215 263 218 264 248 251 283 285 313 237 229 226 257 244 236 237 258 212 200 182 176 212 230 209 235 301
265 257 262 244 245 251 229 241 283 259 260 253 259 248 234 231 227 239 249 220 212 344 239 233 279 328 301 322 319 278 239 276 72 259 254 256 255 234 230 204 174 224 206 154 8